Location: Ebenezer
(18.2167°N, 63.0667°W)
Time: 21:06:07
(UTC+00:00)

Cosmos 1980 - Pass Details

Date: 26 January 2020
Orbit: 838 x 849 km, 71.0° (Epoch: 23 February)

Event Time Altitude Azimuth Distance (km) Brightness Sun altitude
Rises 22:24:37 0° 338° (NNW) 3,405 6.9 -5.7°
Reaches altitude 10° 22:27:05 10° 336° (NNW) 2,468 6.2 -6.3°
Maximum altitude 22:32:41 66° 255° (WSW) 921 4.2 -7.5°
Drops below altitude 10° 22:38:17 10° 173° (S) 2,459 6.3 -8.8°
Sets 22:40:44 0° 171° (S) 3,391 6.9 -9.4°
